Location: Hartman Creek State Park
(44.3257°N, 89.2134°W)
Time: 11:47:51
(UTC-05:00)

Cosmos 2263 Rocket - Visible Passes

Search period start: 18 April 2014 00:00
Search period end: 28 April 2014 00:00
Orbit: 823 x 850 km, 71.0° (Epoch: 16 April)

Date Brightness Start Highest point End Pass type
(mag) Time Alt. Az. Time Alt. Az. Time Alt. Az.
18 Apr 4.5 01:23:35 14° WNW 01:25:19 15° NW 01:28:33 10° N visible
18 Apr 4.3 21:43:19 10° ENE 21:43:19 10° ENE 21:43:29 10° ENE visible
18 Apr 2.6 23:24:58 57° NNE 23:24:58 57° NNE 23:29:25 10° NNE visible
19 Apr 4.5 01:06:36 14° WNW 01:08:37 16° NW 01:12:05 10° N visible
19 Apr 4.2 21:26:13 11° ENE 21:26:13 11° ENE 21:26:32 10° ENE visible
19 Apr 2.3 23:07:51 70° NNE 23:07:51 70° NNE 23:12:49 10° NNE visible
20 Apr 4.5 00:49:28 14° WNW 00:51:56 17° NW 00:55:37 10° N visible
20 Apr 4.1 21:08:57 11° E 21:08:57 11° E 21:09:29 10° ENE visible
20 Apr 2.0 22:50:34 85° ESE 22:50:34 85° ESE 22:56:13 10° NNE visible
21 Apr 4.5 00:32:10 12° W 00:35:16 18° NW 00:39:07 10° N visible
21 Apr 4.0 20:51:25 11° E 20:51:25 11° E 20:52:10 10° E visible
21 Apr 2.0 22:33:01 62° S 22:33:58 79° ESE 22:39:36 10° NNE visible
22 Apr 4.4 00:14:36 10° W 00:18:35 20° NW 00:22:37 10° N visible
22 Apr 2.0 22:15:04 36° S 22:17:22 73° ESE 22:22:59 10° NNE visible
22 Apr 4.4 23:57:46 10° W 00:01:55 21° NW 00:06:06 10° N visible
23 Apr 5.5 05:22:57 10° NNE 05:23:36 10° NE 05:24:15 10° NE visible
23 Apr 2.1 21:56:20 16° S 22:00:46 68° ESE 22:06:22 10° NNE visible
23 Apr 4.4 23:40:56 10° W 23:45:15 22° NW 23:49:35 10° N visible
24 Apr 2.1 21:38:42 10° S 21:44:11 62° ESE 21:49:44 10° NNE visible
24 Apr 4.3 23:24:08 10° WSW 23:28:35 24° NW 23:33:04 10° N visible
25 Apr 2.2 21:22:09 10° S 21:27:35 57° ESE 21:33:06 10° NNE visible
25 Apr 4.3 23:07:21 10° WSW 23:11:55 25° NW 23:16:32 10° N visible
26 Apr 2.3 21:05:37 10° S 21:11:00 53° ESE 21:16:28 10° NE visible
26 Apr 4.2 22:50:34 10° WSW 22:55:15 27° NW 23:00:00 10° N visible
27 Apr 2.4 20:49:05 10° S 20:54:25 49° ESE 20:59:50 10° NE visible
27 Apr 4.1 22:33:48 10° WSW 22:38:36 29° NW 22:43:27 10° N visible
